CZ-6A DEB, 54385

Orbit data source: Space-Track

CZ-6A DEB, 54385 is space debris in SSO originally from a launch on Fri, 11 Nov 2022 UTC launched from the Taiyaun Space Center, China (TSC). Debris objects in space refer to the collection of defunct objects orbiting the Earth. Examples of debris include non-operational satellites, rocket bodies, and fragments generated from explosions, collisions, or faulty payload assembly.

Loading next visibility...
Identifier
54385, 2022-151DH
Orbit
SSO
Country
Flag of CNCN / PRC
Related business
Manufacturer
SAST
Mission
Spacecraft
Bus & Motor
Unknown
Mass
Unknown
Launch date (UTC)
2022-11-11 (4 years ago)
Launch vehicle
Unknown
Launch site
Taiyaun Space Center, China (TSC)
Object type
Payload
Rocket body
Debris
Shape & HBR
Unknown shape, 0.5 m
Radar Cross Section
Medium (>0.1 m² and <1 m²)

Expand to show TLE details & history
Last TLE update: 19 hours ago

TLE from 19 hours ago
0 CZ-6A DEB
1 54385U 22151DH  26235.69363610  .00000543  00000-0  36369-3 0  9990
2 54385  98.9014 225.4860 0076152 194.5014 165.3967 14.03686408193044
Epoch: 2026-08-23T16:38Z
TLE epoch observation values (Epoch: 2026-08-23T16:38:50.159Z)
Latitude
-0.00007°
Longitude
3.79099°
Altitude
937.475 km
Speed
7.356 km/s
True Right ascension
15h 01m 56s
True Declination
0° 00' 00"
Sunlit
Object was in daylight at epoch
Visualization orbit readout
Latitude
Unknown
Longitude
Unknown
Altitude
Unknown
Speed
Unknown
Apparent Right ascension
Unknown
Apparent Declination
Unknown
Sunlit
N/A
Visualization observer readout
Local Sidereal Time
02:51:00
Azimuth
Unknown
Elevation
Unknown
Doppler factor
Unknown
Orbital elements
Apogee altitude
933.506 km
Perigee altitude
822.988 km
Semi-major axis
7,256.384 km
Eccentricity
0.00762
Inclination
98.9014°
RAAN
225.486°
Arg. of periapsis
194.5014°
True anomaly
165.6147°
Mean anomaly
165.3967°
Eccentric anomaly
165.5059°
Mean motion
3.51126 °/min
Orbital period
102.53 mins
BSTAR
0.00036369
Loading maneuver chart data...
Computing Atmospheric mass density...
Loading historical data...
Loading historical data...
Loading historical data...
Loading historical data...
Loading historical data...
Loading historical data...
Loading historical data...

Documentation

Showing up to 5 results
|